Regional Weather Roundup
Issued by NWS

Home | Current Version | Previous Version | Graphics & Text | Print | Product List | Glossary On
Versions: 1 2 3 4 5 6 7 8 9 10 11 12 13 14 15 16 17 18 19 20 21 22 23 24 25 26 27 28
000
ASUS45 KTFX 291110
RWRMT
MONTANA REGIONAL WEATHER ROUNDUP
NATIONAL WEATHER SERVICE GREAT FALLS MT
500 AM MDT MON MAY 29 2017

NOTE: "FAIR" INDICATES FEW OR NO CLOUDS BELOW 12000 FEET WITH NO
SIGNIFICANT WEATHER AND/OR OBSTRUCTIONS TO VISIBILITY.

MTZ001>007-043-291200-
WEST OF THE DIVIDE

CITY           SKY/WX    TMP DP  RH WIND       PRES   REMARKS
KALISPELL      CLEAR     47  44  90 N5        30.17S
MISSOULA       PTCLDY    49  43  80 NW6       30.20R
BUTTE          CLOUDY    38  35  89 S7        30.30S
MULLAN PASS    CLEAR     52  36  54 SE8       30.26S
ANACONDA         N/A     45  37  76 S5        30.28S
DEER LODGE       N/A     41  37  87 CALM      30.29F
EUREKA           N/A     48  43  81 CALM      30.17R
HAMILTON         N/A     50  39  66 S5        30.21S
$$

MTZ008-052>055-291200-
SOUTHWEST MONTANA

CITY           SKY/WX    TMP DP  RH WIND       PRES   REMARKS
BOZEMAN        CLEAR     42  39  89 SE8       30.28R
DILLON         CLEAR     40  35  83 SW7       30.28S
ENNIS          CLEAR     39  36  87 CALM      30.34R
THREE FORKS      N/A     39  37  92 CALM      30.23S
TWIN BRIDGES     N/A     43  34  70 NW2       30.23S
$$

MTZ009-010-012-014-046-048-049-054-291200-
EAST SLOPES AND CENTRAL MONTANA

CITY           SKY/WX    TMP DP  RH WIND       PRES   REMARKS
CUT BANK       PTCLDY    42  38  85 NE7       30.24S
GREAT FALLS    CLOUDY    45  42  89 SW8       30.25S
MALMSTROM AFB  CLOUDY    44  42  95 W3        30.24F
HELENA         CLOUDY    50  43  77 CALM      30.25S
CHOTEAU          N/A     45  43  93 SW5       30.26S
$$

MTZ011-013-016-021-045-047-050-051-291200-
NORTH CENTRAL MONTANA

CITY           SKY/WX    TMP DP  RH WIND       PRES   REMARKS
HAVRE          CLEAR     33  29  85 S6        30.24S WCI  28
LEWISTOWN      CLEAR     40  35  83 SE6       30.26S
N BAR RANCH      N/A     39  32  75 W8        30.29S
CHINOOK          N/A     37  30  75 CALM      30.25S
FORT BENTON      N/A     43  39  87 MISG      30.25
$$

MTZ017>020-022>027-061-062-291200-
NORTHEAST MONTANA

CITY           SKY/WX    TMP DP  RH WIND       PRES   REMARKS
GLASGOW        CLEAR     38  31  76 NW9       30.20R WCI  31
JORDAN           N/A     36  27  69 W8        30.21R WCI  30
SIDNEY         CLEAR     44  35  70 NW12      30.13S
WOLF POINT     CLEAR     45  35  68 NW10      30.17S
MALTA          CLEAR     36  32  87 W3        30.23S
PLENTYWOOD       N/A     43  37  81 CALM      30.14R
POPLAR           N/A     45  36  70 NE3       30.17R
$$

MTZ028>42-056>058-291200-
SOUTHCENTRAL AND SOUTHEAST MONTANA

CITY           SKY/WX    TMP DP  RH WIND       PRES   REMARKS
BAKER          CLEAR     38  30  73 W6        30.16R
BILLINGS       PTCLDY    46  39  76 NW6       30.24R
LIVINGSTON     CLEAR     40  39  97 NW8       30.27S
MILES CITY     CLEAR     40  26  57 NW10      30.19R
BIG TIMBER     CLEAR     43  41  93 W8        30.29S
EKALAKA          N/A     40  28  62 CALM      30.13R
FORSYTH          N/A     45  30  57 W5        30.21R
LAUREL           N/A     45  37  73 W3        30.20F
ROUNDUP          N/A     45  29  53 SW3       30.15R
$$

REGIONAL REPORTS...DAKOTAS

CITY           SKY/WX    TMP DP  RH WIND       PRES   REMARKS
WILLISTON      CLEAR     45  38  76 NW12      30.11R
MINOT          CLOUDY    52  44  74 NW16      30.00R
DICKINSON      CLEAR     38  35  89 W8        30.08R
BEACH            N/A     41  36  81 NW10      30.17R
CROSBY           N/A     45  43  93 NW16      30.09R
TIOGA            N/A     41  41 100 W10       30.09R
WATFORD CITY     N/A     43  39  87 W9        30.10R
BISMARCK       CLOUDY    52  43  71 NW13G18   30.01R
GRAND FORKS    LGT RAIN  51  49  92 NW14      29.83R
FARGO          CLOUDY    52  48  86 NW16G30   29.83R
BUFFALO SD       N/A     43  34  70 NW14      30.07S
RAPID CITY     CLEAR     40  34  79 NW6       30.14R
$$

REGIONAL REPORTS...WYOMING/IDAHO/WASHINGTON

CITY           SKY/WX    TMP DP  RH WIND       PRES   REMARKS
GILLETTE       MOCLDY    43  40  89 W10       30.20R
SHERIDAN       MOCLDY    50  41  71 NW10      30.22R
BUFFALO WY     CLEAR     49  37  63 NW8       30.24R
CODY           CLEAR     48  40  73 SW5       30.27F
YELLOWSTONE LA   N/A     28  28 100 CALM      30.39S
IDAHO FALLS    CLEAR     44  41  89 N5        30.22S
SALMON         CLEAR     45  37  76 CALM      30.22R
BOISE          CLEAR     58  42  55 CALM      30.09R
SPOKANE        CLEAR     62  47  57 E3        30.08S
$$

REGIONAL REPORTS...ALBERTA

CITY           SKY/WX    TMP DP  RH WIND       PRES   REMARKS
EDMONTON       CLEAR     39  34  81 CALM      30.23S
CALGARY        CLEAR     48  36  61 SE8       30.23F
LETHBRIDGE     CLEAR     43  39  87 E5        30.23S
MEDICINE HAT   CLEAR     36  32  87 SW5       30.23S
WATERTON GATE    N/A     43  39  87 SW7         N/A
CARDSTON         N/A     45  41  87 S1          N/A
MILK RIVER       N/A     41  37  87 W3          N/A
$$

REGIONAL REPORTS...SASKATCHEWAN

CITY           SKY/WX    TMP DP  RH WIND       PRES   REMARKS
SWIFT CURRENT  CLEAR     37  32  81 W10       30.21S WCI  30
REGINA         MOCLDY    48  41  76 NW13      30.12R
SASKATOON      PTCLDY    36  34  93 NW9       30.20S WCI  29
CYPRESS HILLS    N/A     37  28  70 W2          N/A
VAL MARIE        N/A     30  25  80 W1          N/A
ROCKGLEN         N/A     39  34  81 NW9         N/A
ASSINIBOIA       N/A     37  36  93 CALM        N/A
$$




USA.gov is the U.S. government's official web portal to all federal, state and local government web resources and services.